Weather in Nonthaburi

Thailand     13°51′32″N   100°31′14″E
temp.,
°C
wind,
m/s
gust,
m/s
humid.,
%
clouds,
%
prec.,
mm/h
press.,
hPa
HPBL,
m
24 july, sat
sat2401:00+28sw4871100 0.1 1006532
04:00+27wsw2774100 0.0 1005420
07:00+27sw4973100 0.0 1006504
10:00+28sw4971100 0.0 1007874
13:00+26w4985100 3.1 1007685
16:00+25w41189100 3.6 1005879
19:00+25wsw31188100 4.6 1006877
22:00+25sw41087100 1.1 1008621
25 july, sun
sun2501:00+24sw41090100 1.9 1007583
04:00+24sw4993100 2.4 1006600
07:00+24sw41094100 6.1 1007684
10:00+24sw41193100 4.6 1008792
13:00+24sw31294100 9.1 1008852
16:00+24sw31192100 1.6 1006990
19:00+24sw31193100 2.4 1007758
22:00+24wsw41490100 0.4 1009790
26 july, mon
mon2601:00+24wsw31389100 0.5 1007764
04:00+24sw3787100 0.0 1006293
07:00+24sw3886100 0.0 1007298
10:00+26sw2784100 0.0 1008371
13:00+28wsw3973100 0.0 10061108
16:00+27sw2679100 0.0 1005340
19:00+26wsw2780100 0.0 1005335
22:00+26sw3779100 0.0 1006288
27 july, tue
tue2701:00+26sw377993 0.0 1005257
04:00+26sw258190 0.0 1004169
07:00+26sw278041 0.0 1006297
10:00+31sw576098 0.0 10061422
13:00+32wsw585999 1.2 10041632
16:00+31wsw4860100 0.4 1002658
19:00+30wsw51063100 0.5 1003733
22:00+27wsw497099 0.0 1006523
28 july, wed
wed2801:00+27sw3974100 0.0 1004495
04:00+26sw2576100 0.0 1003205
07:00+26ssw2576100 0.0 1005235
10:00+31wsw4760100 0.0 10061230
13:00+32wsw4656100 0.0 10041490
16:00+32ssw4557100 0.1 1002876
19:00+30wsw4968100 0.8 1003461
22:00+28sw3875100 0.3 1006351